Previsão horária em Abrantes

Hoje, 18 Maio, Terça-feira

Tempo Temperatura Precipitação Vento Pressão Humidade
00:00 +14°C° 0 mm 2 m/s 757 mmHg 70%
01:00 +13°C° 0 mm 2 m/s 757 mmHg 70%
02:00 +13°C° 0 mm 1 m/s 757 mmHg 71%
03:00 +13°C° 0 mm 1 m/s 758 mmHg 73%
04:00 +13°C° 0 mm 1 m/s 758 mmHg 74%
05:00 +14°C° 0 mm 1 m/s 758 mmHg 76%
06:00 +16°C° 0 mm 2 m/s 758 mmHg 72%
07:00 +19°C° 0 mm 2 m/s 758 mmHg 67%
08:00 +21°C° 0 mm 3 m/s 758 mmHg 63%
09:00 +24°C° 0 mm 3 m/s 758 mmHg 59%
10:00 +25°C° 0 mm 4 m/s 758 mmHg 56%
11:00 +26°C° 0 mm 4 m/s 758 mmHg 52%
12:00 +26°C° 0 mm 4 m/s 758 mmHg 57%
13:00 +25°C° 0 mm 4 m/s 758 mmHg 61%
14:00 +23°C° 0 mm 5 m/s 758 mmHg 65%
15:00 +23°C° 0 mm 5 m/s 758 mmHg 61%
16:00 +22°C° 0 mm 5 m/s 758 mmHg 57%
17:00 +22°C° 0 mm 5 m/s 758 mmHg 53%
18:00 +19°C° 0 mm 4 m/s 758 mmHg 63%
19:00 +17°C° 0 mm 4 m/s 759 mmHg 72%
20:00 +14°C° 0 mm 3 m/s 759 mmHg 81%
21:00 +13°C° 0 mm 3 m/s 759 mmHg 83%
22:00 +12°C° 0 mm 3 m/s 759 mmHg 84%
23:00 +12°C° 0 mm 3 m/s 759 mmHg 86%

Amanhã, 19 Maio, Quarta-feira

Tempo Temperatura Precipitação Vento Pressão Humidade
00:00 +11°C° 0 mm 3 m/s 759 mmHg 87%
01:00 +11°C° 0 mm 3 m/s 759 mmHg 88%
02:00 +12°C° 0 mm 2 m/s 759 mmHg 89%
03:00 +12°C° 0 mm 2 m/s 759 mmHg 88%
04:00 +12°C° 0 mm 2 m/s 759 mmHg 88%
05:00 +12°C° 0 mm 2 m/s 759 mmHg 87%
06:00 +15°C° 0 mm 2 m/s 759 mmHg 73%
07:00 +17°C° 0 mm 2 m/s 759 mmHg 59%
08:00 +20°C° 0 mm 2 m/s 760 mmHg 45%
09:00 +23°C° 0 mm 2 m/s 759 mmHg 38%
10:00 +25°C° 0 mm 2 m/s 759 mmHg 31%
11:00 +28°C° 0 mm 2 m/s 759 mmHg 25%
12:00 +28°C° 0 mm 3 m/s 758 mmHg 24%
13:00 +29°C° 0 mm 3 m/s 758 mmHg 23%
14:00 +30°C° 0 mm 4 m/s 758 mmHg 23%
15:00 +28°C° 0 mm 4 m/s 758 mmHg 29%
16:00 +27°C° 0 mm 4 m/s 758 mmHg 36%
17:00 +25°C° 0 mm 5 m/s 758 mmHg 42%
18:00 +22°C° 0 mm 4 m/s 758 mmHg 50%
19:00 +19°C° 0 mm 3 m/s 759 mmHg 58%
20:00 +17°C° 0 mm 3 m/s 759 mmHg 65%
21:00 +16°C° 0 mm 3 m/s 759 mmHg 68%
22:00 +15°C° 0 mm 2 m/s 759 mmHg 71%
23:00 +15°C° 0 mm 2 m/s 759 mmHg 73%

Depois de amanhã, 20 Maio, Quinta-feira

Tempo Temperatura Precipitação Vento Pressão Humidade
00:00 +15°C° 0 mm 2 m/s 758 mmHg 73%
01:00 +15°C° 0 mm 2 m/s 758 mmHg 73%
02:00 +14°C° 0 mm 2 m/s 758 mmHg 72%
03:00 +15°C° 0 mm 2 m/s 758 mmHg 70%
04:00 +15°C° 0 mm 2 m/s 758 mmHg 68%
05:00 +15°C° 0 mm 2 m/s 758 mmHg 66%
06:00 +18°C° 0 mm 2 m/s 758 mmHg 56%
07:00 +21°C° 0 mm 2 m/s 758 mmHg 46%
08:00 +25°C° 0 mm 2 m/s 758 mmHg 36%
09:00 +27°C° 0 mm 2 m/s 758 mmHg 33%
10:00 +29°C° 0 mm 2 m/s 758 mmHg 30%
11:00 +31°C° 0 mm 2 m/s 757 mmHg 27%
12:00 +32°C° 0 mm 2 m/s 757 mmHg 27%
13:00 +32°C° 0 mm 2 m/s 757 mmHg 27%
14:00 +34°C° 0 mm 2 m/s 756 mmHg 26%
15:00 +31°C° 0 mm 3 m/s 756 mmHg 33%
16:00 +29°C° 0 mm 3 m/s 756 mmHg 40%
17:00 +27°C° 0 mm 4 m/s 756 mmHg 46%
18:00 +25°C° 0 mm 4 m/s 756 mmHg 52%
19:00 +21°C° 0 mm 3 m/s 756 mmHg 57%
20:00 +19°C° 0 mm 3 m/s 757 mmHg 63%
21:00 +18°C° 0 mm 3 m/s 757 mmHg 64%
22:00 +17°C° 0 mm 3 m/s 756 mmHg 64%
23:00 +16°C° 0 mm 2 m/s 756 mmHg 65%

21 Maio, Sexta-feira

Tempo Temperatura Precipitação Vento Pressão Humidade
00:00 +16°C° 0 mm 2 m/s 756 mmHg 67%
01:00 +15°C° 0 mm 2 m/s 756 mmHg 70%
02:00 +15°C° 0 mm 2 m/s 755 mmHg 72%
03:00 +15°C° 0 mm 2 m/s 755 mmHg 74%
04:00 +15°C° 0 mm 2 m/s 755 mmHg 75%
05:00 +15°C° 0 mm 2 m/s 756 mmHg 77%
06:00 +17°C° 0 mm 3 m/s 756 mmHg 67%
07:00 +20°C° 0 mm 3 m/s 756 mmHg 57%
08:00 +23°C° 0 mm 4 m/s 756 mmHg 47%
09:00 +25°C° 0 mm 5 m/s 756 mmHg 42%
10:00 +27°C° 0 mm 5 m/s 756 mmHg 37%
11:00 +28°C° 0 mm 6 m/s 756 mmHg 32%
12:00 +28°C° 0 mm 6 m/s 756 mmHg 33%
13:00 +28°C° 0 mm 6 m/s 755 mmHg 35%
14:00 +27°C° 0 mm 6 m/s 755 mmHg 36%
15:00 +26°C° 0 mm 6 m/s 755 mmHg 43%
16:00 +24°C° 0 mm 6 m/s 755 mmHg 51%
17:00 +22°C° 0 mm 5 m/s 755 mmHg 58%
18:00 +20°C° 0 mm 5 m/s 755 mmHg 66%
19:00 +17°C° 0 mm 5 m/s 756 mmHg 74%
20:00 +15°C° 0 mm 5 m/s 756 mmHg 82%
21:00 +14°C° 0 mm 5 m/s 756 mmHg 81%
22:00 +13°C° 0 mm 4 m/s 756 mmHg 79%
23:00 +12°C° 0 mm 4 m/s 756 mmHg 78%

22 Maio, Sábado

Tempo Temperatura Precipitação Vento Pressão Humidade
00:00 +11°C° 0 mm 3 m/s 756 mmHg 80%
01:00 +11°C° 0 mm 3 m/s 756 mmHg 83%
02:00 +10°C° 0 mm 3 m/s 756 mmHg 85%
03:00 +10°C° 0 mm 3 m/s 756 mmHg 85%
04:00 +10°C° 0 mm 3 m/s 756 mmHg 84%
05:00 +10°C° 0 mm 2 m/s 756 mmHg 83%
06:00 +13°C° 0 mm 3 m/s 756 mmHg 69%
07:00 +16°C° 0 mm 3 m/s 756 mmHg 55%
08:00 +18°C° 0 mm 4 m/s 755 mmHg 40%
09:00 +19°C° 0 mm 4 m/s 755 mmHg 37%
10:00 +20°C° 0 mm 4 m/s 755 mmHg 34%
11:00 +21°C° 0 mm 5 m/s 755 mmHg 31%
12:00 +21°C° 0 mm 5 m/s 755 mmHg 33%
13:00 +21°C° 0 mm 5 m/s 755 mmHg 34%
14:00 +21°C° 0 mm 6 m/s 755 mmHg 35%
15:00 +20°C° 0 mm 6 m/s 755 mmHg 40%
16:00 +19°C° 0 mm 5 m/s 755 mmHg 45%
17:00 +17°C° 0 mm 5 m/s 755 mmHg 50%
18:00 +16°C° 0 mm 5 m/s 755 mmHg 53%
19:00 +15°C° 0 mm 4 m/s 756 mmHg 56%
20:00 +14°C° 0 mm 4 m/s 756 mmHg 59%
21:00 +13°C° 0 mm 4 m/s 756 mmHg 62%
22:00 +13°C° 0 mm 4 m/s 756 mmHg 64%
23:00 +13°C° 0 mm 4 m/s 757 mmHg 67%

23 Maio, Domingo

Tempo Temperatura Precipitação Vento Pressão Humidade
00:00 +13°C° 0 mm 4 m/s 757 mmHg 68%
01:00 +13°C° 0 mm 3 m/s 757 mmHg 70%
02:00 +13°C° 0 mm 3 m/s 756 mmHg 72%
03:00 +12°C° 0 mm 3 m/s 757 mmHg 73%
04:00 +12°C° 0 mm 4 m/s 757 mmHg 74%
05:00 +12°C° 0 mm 4 m/s 757 mmHg 75%
06:00 +14°C° 0 mm 4 m/s 757 mmHg 64%
07:00 +15°C° 0 mm 5 m/s 757 mmHg 52%
08:00 +17°C° 0 mm 5 m/s 757 mmHg 41%
09:00 +20°C° 0 mm 5 m/s 757 mmHg 35%
10:00 +22°C° 0 mm 5 m/s 757 mmHg 29%
11:00 +23°C° 0 mm 4 m/s 756 mmHg 23%
12:00 +25°C° 0 mm 5 m/s 756 mmHg 24%
13:00 +25°C° 0 mm 5 m/s 755 mmHg 24%
14:00 +25°C° 0 mm 5 m/s 755 mmHg 24%
15:00 +23°C° 0 mm 5 m/s 755 mmHg 32%
16:00 +21°C° 0 mm 6 m/s 755 mmHg 41%
17:00 +20°C° 0 mm 6 m/s 755 mmHg 49%
18:00 +17°C° 0 mm 5 m/s 755 mmHg 54%
19:00 +16°C° 0 mm 5 m/s 755 mmHg 59%
20:00 +14°C° 0 mm 4 m/s 756 mmHg 65%
21:00 +14°C° 0 mm 4 m/s 756 mmHg 66%
22:00 +13°C° 0 mm 3 m/s 755 mmHg 68%
23:00 +13°C° 0 mm 3 m/s 755 mmHg 70%
Mostrar mais

Necessitamos do seu Consentimento

A Meteoprog e os seus Fornecedores de Serviços podem armazenar e aceder a dados pessoais como cookies, identificadores do dispositivo ou outras tecnologias semelhantes existentes no seu dispositivo e processar estes dados para personalizar conteúdos e anúncios, assim como funcionalidades nas redes sociais e análise de tráfego.

  • Armazenar e/ou aceder a informações no seu dispositivo

    Os cookies, identificadores do dispositivo ou outras informações podem ser armazenados ou acedidos no seu dispositivo, para os fins acima indicados.

  • Anúncios e conteúdos personalizados, medição de anúncios e conteúdos, dados sobre o público-alvo e desenvolvimento de produtos

    Os anúncios e os conteúdos podem ser personalizados com base num perfil. Podem ser adicionados dados adicionais para uma maior personalização dos anúncios e dos conteúdos. A eficácia dos anúncios e dos conteúdos pode ser medida. Podem ser obtidas informações sobre o público que visualizou os anúncios e os conteúdos. Estes dados podem ser usados para desenvolver ou melhorar sistemas, softwares ou a experiência do utilizador.

Ao clicar em "Eu concordo”, permitirá o uso de cookies, identificadores do dispositivo e web beacons mencionados ou outras tecnologias semelhantes. As configurações do navegador do seu dispositivo podem ser alteradas.

Para certos fins, podem ser invocados interesses legítimos ao invés de consentimento. Pode ler mais informação sobre este assunto na nossa Política de Privacidade e Cookies.